Regional Weather Roundup
Issued by NWS State College, PA

Home | Current Version | Previous Version | Text Only | Print | Product List | Glossary Off
Versions: 1 2 3 4 5 6 7 8 9 10 11 12 13 14 15 16 17 18 19 20 21 22 23 24 25 26 27 28 29 30 31 32 33 34 35 36 37 38 39 40 41 42 43 44 45 46 47 48 49 50

571
ASUS41 KCTP 262003
RWRCTP

REGIONAL WEATHER ROUNDUP
NATIONAL WEATHER SERVICE STATE COLLEGE PA
400 PM EDT WED APR 26 2017

Note: "fair" indicates few or no clouds below 12,000 feet with no
significant weather and/or obstructions to visibility.

* = STATION THAT DOES NOT REPORT PRECIPITATION /E.G. RAIN...SNOW...ETC/
    THUNDER OR FOG.

PAZ002>004-007>009-013>016-020>023-029>032-262100-
WESTERN PENNSYLVANIA

CITY           SKY/WX    TMP DP  RH WIND       PRES   REMARKS
ERIE           CLOUDY    75  57  53 S10       29.68F
MEADVILLE      SUNNY     74  56  53 VRB7      29.71F
FRANKLIN*      SUNNY     72  55  56 SE9       29.74F
NEW CASTLE     FAIR      78  57  48 VRB6      29.71F
BEAVER COUNTY  SUNNY     77  57  50 S9        29.71F
BUTLER*        SUNNY     73  57  56 S8        29.73F
PITTSBURGH INT PTSUNNY   77  56  48 VRB6      29.72F
PITTSBURGH     SUNNY     75  55  49 S9        29.72F
INDIANA*       SUNNY     73  55  53 CALM      29.76F
LATROBE        MOSUNNY   73  57  56 W7        29.74F
WASHINGTON CO* SUNNY     75  57  53 S3        29.74F
$$

PAZ004>006-010>012-017>019-024>028-033>037-041-042-045-046-049>053-262100-
CENTRAL PENNSYLVANIA

CITY           SKY/WX    TMP DP  RH WIND       PRES   REMARKS
BRADFORD       SUNNY     73  54  51 SE9       29.73F
DUBOIS         SUNNY     70  55  59 MISG      29.74F
CLEARFIELD     MOSUNNY   72  56  57 S6        29.76F
JOHNSTOWN      MOSUNNY   71  53  52 W3        29.76F
ALTOONA        MOSUNNY   71  58  63 VRB3      29.77F
STATE COLLEGE  MOSUNNY   70  57  64 CALM      29.76F
WILLIAMSPORT   MOSUNNY   74  57  55 W6        29.73F
SELINSGROVE    MOSUNNY   68  59  73 S3        29.76S
FT INDIANTOWN  CLOUDY    68  60  74 CALM      29.76S
CAPITAL CITY   CLOUDY    67  57  70 W5        29.77S
HARRISBURG     CLOUDY    66  59  78 W3        29.77R
YORK           CLOUDY    64  60  87 W5        29.78R
$$

PAZ038>040-043-044-047-048-054-055-060>062-067>071-262100-
EASTERN PENNSYLVANIA

CITY           SKY/WX    TMP DP  RH WIND       PRES   REMARKS
SCRANTON       CLOUDY    73  57  57 NE9       29.74F
MOUNT POCONO   CLOUDY    60  57  89 VRB5      29.78S
ALLENTOWN      CLOUDY    67  55  65 SE3       29.76F
QUAKERTOWN*    CLOUDY    63  55  77 N3        29.77S
READING        CLOUDY    67  58  72 CALM      29.75S
LANCASTER      CLOUDY    67  61  81 CALM      29.77S
COATESVILLE      N/A     63  59  88 N5        29.79R
POTTSTOWN      CLOUDY    62  55  77 CALM      29.78S
BLUE BELL      CLOUDY    61  55  82 CALM      29.78S
DOYLESTOWN     CLOUDY    62  57  83 CALM      29.75F
WILLOW GROVE   NOT AVBL
NORTH PHILA    CLOUDY    64  57  78 VRB6      29.77F
PHILADELPHIA   NOT AVBL
$$




USA.gov is the U.S. government's official web portal to all federal, state and local government web resources and services.